Terug naar catalogus

FENGYUN 1C DEB

ActiefPO
NORAD 31508·DEBRIS·🇨🇳 China

Gelanceerd May 10, 1999 vanaf Taiyuan Satellite Launch Center

Loading…

Volgende Passages (komende 24 uur)

TLE

VersSource: Space-Track

Epoch: Sep 13, 2026, 07:20 UTC

1 31508U 99025BWX 26256.30573459  .00009699  00000-0  16110-2 0  9993
2 31508  98.6439  24.2675 0029647 189.7435 170.3198 14.70082227  9415

Volg FENGYUN 1C DEB in realtime met AllMySat

Download on the App Store